NOVA 3

Last updated on Sat Sep 05 2026 00:03:34 GMT+0000 (Coordinated Universal Time)

1 15362U 84110A 26247.07651135 .00000044 00000+0 83911-4 0 9993 2 15362 90.1117 83.5257 0030382 320.8642 204.4390 13.23075851 22066
UTC large
Height (km)
Speed (km/s)
/
Latitude / Longitude
Inclination (degrees)
Orbital Period (minutes)
Azimuth
Elevation
Range (km)
Doppler Factor

Next 0 passes for location: London (51.5072 / 0.1276)

No passes found over London.
NOVA 3